| time (UTC) | temp F | wind direction | speed knots | gust knots | rain 1hr in | rain 24hr in | rain mn in | humidity % | barometer mb |
| 20260506185446 | 60 | 246 | 0.0 | 0.0 | 0.00 | 0.00 | 0.00 | 42 | 1022.9 |
| 20260506184942 | 60 | 7 | 1.7 | 1.7 | 0.00 | 0.00 | 0.00 | 41 | 1023.1 |
| 20260506184439 | 59 | 254 | 0.9 | 1.7 | 0.00 | 0.00 | 0.00 | 43 | 1023.1 |
| 20260506183937 | 59 | 290 | 2.6 | 4.3 | 0.00 | 0.00 | 0.00 | 45 | 1023.6 |
| 20260506183432 | 59 | 268 | 0.9 | 1.7 | 0.00 | 0.00 | 0.00 | 42 | 1023.4 |
| 20260506182929 | 58 | 186 | 0.0 | 0.0 | 0.00 | 0.00 | 0.00 | 41 | 1023.3 |
| 20260506182426 | 57 | 167 | 0.0 | 0.0 | 0.00 | 0.00 | 0.00 | 44 | 1023.4 |
| 20260506181924 | 58 | 212 | 1.7 | 1.7 | 0.00 | 0.00 | 0.00 | 43 | 1023.4 |
| 20260506181422 | 58 | 230 | 1.7 | 1.7 | 0.00 | 0.00 | 0.00 | 43 | 1023.6 |
| 20260506180918 | 56 | 214 | 0.0 | 0.9 | 0.00 | 0.00 | 0.00 | 43 | 1023.7 |
| 20260506180414 | 57 | 271 | 0.0 | 0.9 | 0.00 | 0.00 | 0.00 | 45 | 1023.7 |
| 20260506175911 | 55 | 290 | 0.9 | 0.9 | 0.00 | 0.00 | 0.00 | 43 | 1023.7 |
| 20260506175408 | 55 | 330 | 0.9 | 0.9 | 0.00 | 0.00 | 0.00 | 45 | 1023.8 |
| 20260506174905 | 57 | 266 | 2.6 | 4.3 | 0.00 | 0.00 | 0.00 | 44 | 1024.0 |
| 20260506174403 | 56 | 292 | 2.6 | 4.3 | 0.00 | 0.00 | 0.00 | 44 | 1024.2 |
| 20260506173900 | 55 | 248 | 4.3 | 5.2 | 0.00 | 0.00 | 0.00 | 45 | 1024.0 |
| 20260506173356 | 55 | 254 | 2.6 | 4.3 | 0.00 | 0.00 | 0.00 | 48 | 1024.2 |
| 20260506172853 | 56 | 233 | 1.7 | 4.3 | 0.00 | 0.00 | 0.00 | 48 | 1024.3 |
| 20260506172350 | 55 | 246 | 1.7 | 2.6 | 0.00 | 0.00 | 0.00 | 45 | 1024.2 |
| 20260506171847 | 54 | 247 | 0.0 | 0.0 | 0.00 | 0.00 | 0.00 | 46 | 1024.2 |
| 20260506171344 | 55 | 330 | 4.3 | 6.1 | 0.00 | 0.00 | 0.00 | 45 | 1024.7 |
| 20260506170842 | 53 | 260 | 0.9 | 0.9 | 0.00 | 0.00 | 0.00 | 45 | 1024.8 |
| 20260506170337 | 54 | 293 | 2.6 | 4.3 | 0.00 | 0.00 | 0.00 | 48 | 1024.5 |
| 20260506165832 | 52 | 157 | 0.0 | 0.9 | 0.00 | 0.00 | 0.00 | 48 | 1024.7 |
| 20260506165329 | 53 | 97 | 0.0 | 0.9 | 0.00 | 0.00 | 0.00 | 48 | 1024.7 |
| 20260506164825 | 51 | 300 | 1.7 | 1.7 | 0.00 | 0.00 | 0.00 | 49 | 1025.0 |
| 20260506164322 | 51 | 14 | 0.9 | 0.9 | 0.00 | 0.00 | 0.00 | 50 | 1024.9 |
| 20260506163819 | 51 | 281 | 1.7 | 1.7 | 0.00 | 0.00 | 0.00 | 50 | 1025.2 |
| 20260506163314 | 51 | 318 | 0.9 | 0.9 | 0.00 | 0.00 | 0.00 | 49 | 1025.1 |
| 20260506162809 | 50 | 308 | 0.9 | 0.9 | 0.00 | 0.00 | 0.00 | 52 | 1025.3 |
| 20260506162308 | 50 | 251 | 1.7 | 1.7 | 0.00 | 0.00 | 0.00 | 53 | 1025.3 |
| 20260506161805 | 49 | 238 | 0.0 | 0.9 | 0.00 | 0.00 | 0.00 | 54 | 1025.4 |
| 20260506161302 | 49 | 280 | 2.6 | 2.6 | 0.00 | 0.00 | 0.00 | 52 | 1025.5 |
| 20260506160800 | 49 | 235 | 0.0 | 0.9 | 0.00 | 0.00 | 0.00 | 58 | 1025.7 |
| 20260506160256 | 48 | 326 | 1.7 | 1.7 | 0.00 | 0.00 | 0.00 | 59 | 1025.7 |
| 20260506155755 | 47 | 73 | 0.0 | 0.9 | 0.00 | 0.00 | 0.00 | 57 | 1025.8 |
| 20260506155251 | 46 | 30 | 0.9 | 1.7 | 0.00 | 0.00 | 0.00 | 60 | 1026.1 |
| 20260506153404 | 42 | 319 | 0.9 | 1.7 | 0.00 | 0.00 | 0.00 | 69 | 1026.2 |
| 20260506152901 | 42 | 253 | 0.0 | 0.0 | 0.00 | 0.00 | 0.00 | 68 | 1026.3 |
| 20260506152358 | 42 | 315 | 1.7 | 1.7 | 0.00 | 0.00 | 0.00 | 68 | 1026.4 |
| 20260506151857 | 42 | 329 | 0.9 | 0.9 | 0.00 | 0.00 | 0.00 | 69 | 1026.4 |
| 20260506151353 | 41 | 259 | 0.0 | 0.0 | 0.00 | 0.00 | 0.00 | 70 | 1026.4 |
| 20260506150851 | 41 | 343 | 0.9 | 0.9 | 0.00 | 0.00 | 0.00 | 70 | 1026.2 |
| 20260506150347 | 41 | 297 | 0.0 | 0.0 | 0.00 | 0.00 | 0.00 | 73 | 1026.6 |
| 20260506145844 | 41 | 255 | 0.0 | 0.0 | 0.00 | 0.00 | 0.00 | 73 | 1026.6 |
| 20260506145340 | 41 | 263 | 0.0 | 0.0 | 0.00 | 0.00 | 0.00 | 73 | 1026.6 |
| 20260506144838 | 40 | 253 | 0.0 | 0.0 | 0.00 | 0.00 | 0.00 | 75 | 1026.5 |
| 20260506144334 | 40 | 248 | 0.0 | 0.0 | 0.00 | 0.00 | 0.00 | 75 | 1026.6 |
| 20260506143833 | 40 | 257 | 0.0 | 0.0 | 0.00 | 0.00 | 0.00 | 76 | 1026.6 |
| 20260506143329 | 40 | 191 | 0.0 | 0.0 | 0.00 | 0.00 | 0.00 | 76 | 1026.6 |
| 20260506142828 | 40 | 43 | 0.0 | 0.9 | 0.00 | 0.00 | 0.00 | 76 | 1026.9 |
| 20260506142325 | 40 | 19 | 0.9 | 0.9 | 0.00 | 0.00 | 0.00 | 75 | 1026.8 |
| 20260506141823 | 41 | 333 | 1.7 | 1.7 | 0.00 | 0.00 | 0.00 | 73 | 1026.6 |
| 20260506141321 | 39 | 220 | 0.0 | 0.0 | 0.00 | 0.00 | 0.00 | 76 | 1026.9 |
| 20260506140819 | 39 | 256 | 0.0 | 0.0 | 0.00 | 0.00 | 0.00 | 79 | 1026.9 |
| 20260506140315 | 39 | 210 | 0.0 | 0.0 | 0.00 | 0.00 | 0.00 | 82 | 1027.1 |
| 20260506135813 | 37 | 206 | 0.0 | 0.0 | 0.00 | 0.00 | 0.00 | 83 | 1027.2 |
| 20260506135308 | 36 | 205 | 0.0 | 0.0 | 0.00 | 0.00 | 0.00 | 84 | 1027.0 |
| 20260506134805 | 35 | 205 | 0.0 | 0.0 | 0.00 | 0.00 | 0.00 | 87 | 1027.0 |
| 20260506134302 | 34 | 187 | 0.0 | 0.0 | 0.00 | 0.00 | 0.00 | 90 | 1027.1 |
| 20260506133759 | 33 | 198 | 0.0 | 0.0 | 0.00 | 0.00 | 0.00 | 92 | 1027.0 |
| 20260506133256 | 32 | 238 | 0.0 | 0.0 | 0.00 | 0.00 | 0.00 | 92 | 1027.0 |
| 20260506132752 | 32 | 238 | 0.0 | 0.0 | 0.00 | 0.00 | 0.00 | 93 | 1027.0 |
| 20260506132250 | 31 | 239 | 0.0 | 0.0 | 0.00 | 0.00 | 0.00 | 93 | 1026.9 |
| 20260506131748 | 31 | 239 | 0.0 | 0.0 | 0.00 | 0.00 | 0.00 | 93 | 1026.9 |
| 20260506131243 | 30 | 239 | 0.0 | 0.0 | 0.00 | 0.00 | 0.00 | 93 | 1027.0 |
| 20260506130740 | 29 | 237 | 0.0 | 0.0 | 0.00 | 0.00 | 0.00 | 93 | 1026.8 |
| 20260506130237 | 29 | 240 | 0.0 | 0.0 | 0.00 | 0.00 | 0.00 | 92 | 1026.9 |
| 20260506125735 | 28 | 261 | 0.0 | 0.0 | 0.00 | 0.00 | 0.00 | 92 | 1027.0 |
| 20260506125233 | 29 | 222 | 0.0 | 0.0 | 0.00 | 0.00 | 0.00 | 92 | 1026.9 |
| 20260506124731 | 29 | 222 | 0.0 | 0.0 | 0.00 | 0.00 | 0.00 | 92 | 1026.6 |
| 20260506124228 | 29 | 217 | 0.0 | 0.0 | 0.00 | 0.00 | 0.00 | 92 | 1026.5 |
| 20260506123726 | 28 | 222 | 0.0 | 0.0 | 0.00 | 0.00 | 0.00 | 92 | 1026.6 |
| 20260506123225 | 28 | 222 | 0.0 | 0.0 | 0.00 | 0.00 | 0.00 | 92 | 1026.5 |
| 20260506122721 | 29 | 222 | 0.0 | 0.0 | 0.00 | 0.00 | 0.00 | 92 | 1026.8 |
| 20260506122218 | 28 | 222 | 0.0 | 0.0 | 0.00 | 0.00 | 0.00 | 92 | 1026.3 |
| 20260506121716 | 29 | 221 | 0.0 | 0.0 | 0.00 | 0.00 | 0.00 | 92 | 1026.4 |
| 20260506121212 | 29 | 212 | 0.0 | 0.0 | 0.00 | 0.00 | 0.00 | 92 | 1026.3 |
| 20260506120710 | 29 | 213 | 0.0 | 0.0 | 0.00 | 0.00 | 0.00 | 92 | 1026.3 |
| 20260506120208 | 29 | 212 | 0.0 | 0.0 | 0.00 | 0.00 | 0.00 | 91 | 1026.4 |
| 20260506115706 | 29 | 213 | 0.0 | 0.0 | 0.00 | 0.00 | 0.00 | 91 | 1026.6 |
| 20260506115203 | 29 | 236 | 0.0 | 0.0 | 0.00 | 0.00 | 0.00 | 91 | 1026.2 |
| 20260506114700 | 28 | 237 | 0.0 | 0.0 | 0.00 | 0.00 | 0.00 | 91 | 1026.3 |
| 20260506114158 | 28 | 238 | 0.0 | 0.0 | 0.00 | 0.00 | 0.00 | 91 | 1026.5 |
| 20260506113657 | 28 | 237 | 0.0 | 0.0 | 0.00 | 0.00 | 0.00 | 90 | 1026.6 |
| 20260506113154 | 29 | 259 | 0.0 | 0.0 | 0.00 | 0.00 | 0.00 | 90 | 1026.6 |
| 20260506112649 | 29 | 279 | 0.0 | 0.0 | 0.00 | 0.00 | 0.00 | 90 | 1026.5 |
| 20260506112148 | 29 | 308 | 0.9 | 0.9 | 0.00 | 0.00 | 0.00 | 90 | 1026.6 |
| 20260506111645 | 29 | 313 | 0.9 | 0.9 | 0.00 | 0.00 | 0.00 | 90 | 1026.4 |
| 20260506111142 | 29 | 312 | 0.9 | 0.9 | 0.00 | 0.00 | 0.00 | 90 | 1026.5 |
| 20260506110639 | 29 | 319 | 0.0 | 0.0 | 0.00 | 0.00 | 0.00 | 90 | 1026.4 |
| 20260506110137 | 30 | 300 | 0.9 | 0.9 | 0.00 | 0.00 | 0.00 | 90 | 1026.5 |
| 20260506105633 | 30 | 267 | 0.0 | 0.0 | 0.00 | 0.00 | 0.00 | 90 | 1026.5 |
| 20260506105130 | 31 | 241 | 0.0 | 0.0 | 0.00 | 0.00 | 0.00 | 90 | 1026.5 |
| 20260506104629 | 30 | 244 | 0.0 | 0.0 | 0.00 | 0.00 | 0.00 | 90 | 1026.2 |
| 20260506104126 | 29 | 330 | 0.9 | 0.9 | 0.00 | 0.00 | 0.00 | 90 | 1026.2 |
| 20260506103623 | 29 | 287 | 0.0 | 0.0 | 0.00 | 0.00 | 0.00 | 90 | 1026.5 |
| 20260506103120 | 30 | 274 | 0.0 | 0.0 | 0.00 | 0.00 | 0.00 | 90 | 1026.3 |
| 20260506102618 | 30 | 229 | 0.0 | 0.0 | 0.00 | 0.00 | 0.00 | 90 | 1026.3 |
| 20260506102115 | 31 | 219 | 0.0 | 0.0 | 0.00 | 0.00 | 0.00 | 89 | 1026.1 |
| 20260506101612 | 30 | 190 | 0.0 | 0.0 | 0.00 | 0.00 | 0.00 | 89 | 1026.3 |
| 20260506101108 | 30 | 209 | 0.0 | 0.0 | 0.00 | 0.00 | 0.00 | 89 | 1026.1 |
| 20260506100607 | 30 | 240 | 0.0 | 0.0 | 0.00 | 0.00 | 0.00 | 89 | 1026.2 |
| 20260506100105 | 31 | 240 | 0.0 | 0.0 | 0.00 | 0.00 | 0.00 | 88 | 1026.1 |
| 20260506095603 | 31 | 241 | 0.0 | 0.0 | 0.00 | 0.00 | 0.00 | 88 | 1026.2 |
| 20260506095059 | 31 | 229 | 0.0 | 0.0 | 0.00 | 0.00 | 0.00 | 88 | 1026.3 |
| 20260506094557 | 32 | 214 | 0.0 | 0.0 | 0.00 | 0.00 | 0.00 | 88 | 1026.3 |
| 20260506094055 | 32 | 214 | 0.0 | 0.0 | 0.00 | 0.00 | 0.00 | 88 | 1026.3 |
| 20260506093553 | 32 | 215 | 0.0 | 0.0 | 0.00 | 0.00 | 0.00 | 87 | 1026.2 |
| 20260506093050 | 32 | 209 | 0.0 | 0.0 | 0.00 | 0.00 | 0.00 | 87 | 1026.3 |
| 20260506092548 | 31 | 201 | 0.9 | 0.9 | 0.00 | 0.00 | 0.00 | 87 | 1026.4 |
| 20260506092045 | 31 | 244 | 0.9 | 0.9 | 0.00 | 0.00 | 0.00 | 86 | 1026.2 |
| 20260506091543 | 32 | 215 | 0.0 | 0.0 | 0.00 | 0.00 | 0.00 | 86 | 1026.4 |
| 20260506091039 | 32 | 199 | 0.9 | 0.9 | 0.00 | 0.00 | 0.00 | 87 | 1026.1 |
| 20260506090537 | 32 | 212 | 0.0 | 0.0 | 0.00 | 0.00 | 0.00 | 86 | 1026.4 |
| 20260506090033 | 32 | 212 | 0.0 | 0.0 | 0.00 | 0.00 | 0.00 | 86 | 1026.4 |
| 20260506085531 | 32 | 225 | 0.0 | 0.0 | 0.00 | 0.00 | 0.00 | 86 | 1026.4 |
| 20260506085027 | 32 | 225 | 0.0 | 0.0 | 0.00 | 0.00 | 0.00 | 86 | 1026.5 |
| 20260506084524 | 31 | 248 | 0.0 | 0.0 | 0.00 | 0.00 | 0.00 | 85 | 1026.3 |
| 20260506084020 | 32 | 248 | 0.0 | 0.0 | 0.00 | 0.00 | 0.00 | 85 | 1026.3 |
| 20260506083517 | 32 | 248 | 0.0 | 0.0 | 0.00 | 0.00 | 0.00 | 84 | 1026.3 |
| 20260506083015 | 32 | 248 | 0.0 | 0.0 | 0.00 | 0.00 | 0.00 | 84 | 1026.2 |
| 20260506082511 | 32 | 248 | 0.0 | 0.0 | 0.00 | 0.00 | 0.00 | 83 | 1026.2 |
| 20260506082007 | 33 | 248 | 0.0 | 0.0 | 0.00 | 0.00 | 0.00 | 84 | 1026.4 |
| 20260506081505 | 34 | 283 | 0.0 | 0.0 | 0.00 | 0.00 | 0.00 | 84 | 1026.4 |
| 20260506081003 | 34 | 243 | 0.0 | 0.0 | 0.00 | 0.00 | 0.00 | 83 | 1026.2 |
| 20260506080500 | 34 | 237 | 0.0 | 0.0 | 0.00 | 0.00 | 0.00 | 83 | 1026.3 |
| 20260506073443 | 35 | 255 | 0.0 | 0.0 | 0.00 | 0.00 | 0.00 | 77 | 1026.6 |
| 20260506072940 | 36 | 239 | 0.0 | 0.0 | 0.00 | 0.00 | 0.00 | 76 | 1026.3 |
| 20260506072437 | 36 | 237 | 0.0 | 0.0 | 0.00 | 0.00 | 0.00 | 78 | 1026.5 |
| 20260506071936 | 36 | 200 | 0.0 | 0.0 | 0.00 | 0.00 | 0.00 | 78 | 1026.5 |
| 20260506071433 | 35 | 225 | 0.0 | 0.0 | 0.00 | 0.00 | 0.00 | 78 | 1026.3 |
| 20260506070930 | 35 | 240 | 0.0 | 0.0 | 0.00 | 0.00 | 0.00 | 79 | 1026.3 |
| 20260506070427 | 36 | 228 | 0.0 | 0.0 | 0.00 | 0.00 | 0.00 | 76 | 1026.4 |
| 20260506062404 | 40 | 242 | 0.0 | 0.0 | 0.00 | 0.00 | 0.00 | 68 | 1026.1 |
| 20260506061900 | 43 | 213 | 0.0 | 0.0 | 0.00 | 0.00 | 0.00 | 65 | 1026.1 |
| 20260506061357 | 43 | 214 | 0.0 | 0.0 | 0.00 | 0.00 | 0.00 | 65 | 1026.0 |
| 20260506060855 | 44 | 205 | 0.0 | 0.0 | 0.00 | 0.00 | 0.00 | 62 | 1026.0 |
| 20260506060353 | 45 | 178 | 0.0 | 0.0 | 0.00 | 0.00 | 0.00 | 60 | 1026.0 |
| 20260506051325 | 43 | 233 | 0.0 | 0.0 | 0.00 | 0.00 | 0.00 | 62 | 1025.7 |
| 20260506050823 | 44 | 190 | 2.6 | 2.6 | 0.00 | 0.00 | 0.00 | 63 | 1025.2 |
| 20260506050320 | 46 | 157 | 0.9 | 0.9 | 0.00 | 0.00 | 0.00 | 56 | 1025.4 |
| 20260506044810 | 46 | 61 | 0.0 | 0.0 | 0.00 | 0.00 | 0.00 | 56 | 1025.7 |
| 20260506044308 | 46 | 259 | 0.0 | 0.0 | 0.00 | 0.00 | 0.00 | 56 | 1025.4 |
| 20260506043804 | 47 | 343 | 1.7 | 1.7 | 0.00 | 0.00 | 0.00 | 55 | 1025.5 |
| 20260506043302 | 47 | 283 | 0.9 | 0.9 | 0.00 | 0.00 | 0.00 | 54 | 1025.8 |
| 20260506042801 | 47 | 324 | 0.0 | 0.0 | 0.00 | 0.00 | 0.00 | 56 | 1025.4 |
| 20260506042259 | 46 | 308 | 0.0 | 0.0 | 0.00 | 0.00 | 0.00 | 55 | 1025.4 |
| 20260506041757 | 47 | 67 | 0.9 | 0.9 | 0.00 | 0.00 | 0.00 | 56 | 1025.5 |
| 20260506041254 | 47 | 184 | 0.0 | 0.0 | 0.00 | 0.00 | 0.00 | 54 | 1025.4 |
| 20260506040751 | 47 | 349 | 1.7 | 1.7 | 0.00 | 0.00 | 0.00 | 55 | 1025.5 |
| 20260506040248 | 49 | 353 | 0.9 | 0.9 | 0.00 | 0.00 | 0.00 | 53 | 1025.3 |
| 20260506035745 | 49 | 334 | 1.7 | 1.7 | 0.00 | 0.00 | 0.00 | 53 | 1025.5 |
| 20260506035242 | 50 | 343 | 0.9 | 1.7 | 0.00 | 0.00 | 0.00 | 52 | 1025.3 |
| 20260506034738 | 50 | 38 | 2.6 | 2.6 | 0.00 | 0.00 | 0.00 | 50 | 1025.2 |
| 20260506034236 | 50 | 230 | 0.0 | 0.0 | 0.00 | 0.00 | 0.00 | 48 | 1025.1 |
| 20260506033733 | 50 | 50 | 3.5 | 5.2 | 0.00 | 0.00 | 0.00 | 50 | 1025.0 |
| 20260506033230 | 49 | 285 | 4.3 | 5.2 | 0.00 | 0.00 | 0.00 | 51 | 1024.9 |
| 20260506032727 | 50 | 209 | 0.0 | 0.0 | 0.00 | 0.00 | 0.00 | 50 | 1024.9 |
| 20260506032223 | 50 | 51 | 4.3 | 6.1 | 0.00 | 0.00 | 0.00 | 50 | 1024.9 |
| 20260506031720 | 51 | 195 | 0.0 | 0.0 | 0.00 | 0.00 | 0.00 | 50 | 1024.7 |
| 20260506031218 | 51 | 251 | 0.0 | 0.0 | 0.00 | 0.00 | 0.00 | 48 | 1024.5 |
| 20260506030716 | 52 | 159 | 0.0 | 0.9 | 0.00 | 0.00 | 0.00 | 48 | 1024.4 |
| 20260506030213 | 52 | 146 | 0.9 | 0.9 | 0.00 | 0.00 | 0.00 | 48 | 1024.3 |
| 20260506025710 | 52 | 128 | 1.7 | 1.7 | 0.00 | 0.00 | 0.00 | 47 | 1024.5 |
| 20260506025206 | 53 | 111 | 1.7 | 2.6 | 0.00 | 0.00 | 0.00 | 47 | 1024.2 |
| 20260506024703 | 53 | 297 | 4.3 | 5.2 | 0.00 | 0.00 | 0.00 | 45 | 1024.3 |
| 20260506024159 | 51 | 305 | 4.3 | 7.0 | 0.00 | 0.00 | 0.00 | 48 | 1024.0 |
| 20260506023656 | 51 | 345 | 3.5 | 4.3 | 0.00 | 0.00 | 0.00 | 49 | 1023.9 |
| 20260506023153 | 50 | 248 | 0.0 | 0.9 | 0.00 | 0.00 | 0.00 | 52 | 1023.8 |
| 20260506022650 | 51 | 332 | 1.7 | 1.7 | 0.00 | 0.00 | 0.00 | 51 | 1023.7 |
| 20260506022148 | 51 | 1 | 1.7 | 1.7 | 0.00 | 0.00 | 0.00 | 51 | 1023.8 |
| 20260506021646 | 51 | 304 | 2.6 | 2.6 | 0.00 | 0.00 | 0.00 | 52 | 1023.2 |
| 20260506021142 | 52 | 291 | 0.0 | 0.0 | 0.00 | 0.00 | 0.00 | 51 | 1023.3 |
| 20260506020639 | 52 | 251 | 0.0 | 0.0 | 0.00 | 0.00 | 0.00 | 51 | 1023.3 |
| 20260506020137 | 53 | 249 | 0.0 | 0.0 | 0.00 | 0.00 | 0.00 | 52 | 1023.2 |
| 20260506015634 | 54 | 224 | 0.0 | 0.0 | 0.00 | 0.00 | 0.00 | 47 | 1023.1 |
| 20260506015131 | 56 | 45 | 1.7 | 2.6 | 0.00 | 0.00 | 0.00 | 44 | 1023.0 |
| 20260506014629 | 56 | 233 | 0.0 | 0.0 | 0.00 | 0.00 | 0.00 | 45 | 1023.1 |
| 20260506014125 | 57 | 67 | 1.7 | 1.7 | 0.00 | 0.00 | 0.00 | 45 | 1022.9 |
| 20260506013623 | 57 | 359 | 2.6 | 2.6 | 0.00 | 0.00 | 0.00 | 42 | 1023.0 |
| 20260506013119 | 58 | 339 | 5.2 | 7.0 | 0.00 | 0.00 | 0.00 | 41 | 1022.7 |
| 20260506012616 | 58 | 21 | 1.7 | 2.6 | 0.00 | 0.00 | 0.00 | 41 | 1022.6 |
| 20260506012112 | 60 | 87 | 0.9 | 1.7 | 0.00 | 0.00 | 0.00 | 41 | 1022.5 |
| 20260506011610 | 60 | 338 | 2.6 | 4.3 | 0.00 | 0.00 | 0.00 | 40 | 1022.6 |
| 20260506011106 | 60 | 331 | 2.6 | 4.3 | 0.00 | 0.00 | 0.00 | 38 | 1022.6 |
| 20260506010600 | 61 | 295 | 7.8 | 13.0 | 0.00 | 0.00 | 0.00 | 30 | 1022.6 |
| 20260506010056 | 60 | 349 | 7.8 | 9.6 | 0.00 | 0.00 | 0.00 | 29 | 1022.3 |
| 20260506005553 | 60 | 326 | 7.0 | 8.7 | 0.00 | 0.00 | 0.00 | 30 | 1022.2 |
| 20260506005049 | 60 | 26 | 7.8 | 8.7 | 0.00 | 0.00 | 0.00 | 29 | 1022.2 |
| 20260506004547 | 60 | 349 | 13.0 | 17.4 | 0.00 | 0.00 | 0.00 | 29 | 1022.2 |
| 20260506004043 | 61 | 336 | 11.3 | 13.0 | 0.00 | 0.00 | 0.00 | 29 | 1022.1 |
| 20260506003540 | 61 | 334 | 9.6 | 11.3 | 0.00 | 0.00 | 0.00 | 30 | 1022.3 |
| 20260506003036 | 61 | 11 | 4.3 | 6.1 | 0.00 | 0.00 | 0.00 | 30 | 1022.1 |
| 20260506002532 | 61 | 359 | 9.6 | 9.6 | 0.00 | 0.00 | 0.00 | 30 | 1022.2 |
| 20260506002028 | 61 | 348 | 9.6 | 11.3 | 0.00 | 0.00 | 0.00 | 30 | 1022.0 |
| 20260506001524 | 61 | 2 | 8.7 | 11.3 | 0.00 | 0.00 | 0.00 | 29 | 1022.0 |
| 20260506001022 | 62 | 353 | 9.6 | 12.2 | 0.00 | 0.00 | 0.00 | 29 | 1022.0 |
| 20260506000519 | 61 | 334 | 13.0 | 13.9 | 0.00 | 0.00 | 0.00 | 28 | 1022.2 |
| 20260506000016 | 61 | 345 | 7.0 | 8.7 | 0.00 | 0.00 | 0.00 | 30 | 1022.0 |
| 20260505235514 | 62 | 21 | 2.6 | 5.2 | 0.00 | 0.00 | 0.00 | 30 | 1022.0 |
| 20260505235011 | 62 | 328 | 13.0 | 15.6 | 0.00 | 0.00 | 0.00 | 28 | 1022.0 |
| 20260505234508 | 62 | 358 | 7.8 | 12.2 | 0.00 | 0.00 | 0.00 | 30 | 1021.6 |
| 20260505234005 | 62 | 334 | 13.0 | 15.6 | 0.00 | 0.00 | 0.00 | 29 | 1021.7 |
| 20260505233502 | 62 | 58 | 10.4 | 13.0 | 0.00 | 0.00 | 0.00 | 27 | 1021.7 |
| 20260505232959 | 62 | 340 | 13.0 | 14.8 | 0.00 | 0.00 | 0.00 | 29 | 1021.8 |
| 20260505232457 | 62 | 316 | 5.2 | 7.8 | 0.00 | 0.00 | 0.00 | 31 | 1022.0 |
| 20260505231954 | 62 | 13 | 9.6 | 13.9 | 0.00 | 0.00 | 0.00 | 28 | 1021.3 |
| 20260505231451 | 63 | 328 | 3.5 | 4.3 | 0.00 | 0.00 | 0.00 | 31 | 1021.8 |
| 20260505230950 | 62 | 4 | 11.3 | 13.9 | 0.00 | 0.00 | 0.00 | 29 | 1021.7 |
| 20260505230447 | 62 | 338 | 9.6 | 13.0 | 0.00 | 0.00 | 0.00 | 30 | 1021.7 |
| 20260505225943 | 63 | 325 | 8.7 | 13.0 | 0.00 | 0.00 | 0.00 | 31 | 1021.6 |
| 20260505225440 | 63 | 340 | 9.6 | 11.3 | 0.00 | 0.00 | 0.00 | 31 | 1021.6 |
| 20260505224936 | 63 | 359 | 12.2 | 14.8 | 0.00 | 0.00 | 0.00 | 30 | 1021.5 |
| 20260505224433 | 63 | 327 | 10.4 | 12.2 | 0.00 | 0.00 | 0.00 | 32 | 1021.5 |
| 20260505223930 | 63 | 320 | 8.7 | 13.0 | 0.00 | 0.00 | 0.00 | 34 | 1021.8 |
| 20260505223427 | 63 | 342 | 8.7 | 11.3 | 0.00 | 0.00 | 0.00 | 32 | 1021.7 |
| 20260505222924 | 62 | 3 | 6.1 | 7.8 | 0.00 | 0.00 | 0.00 | 31 | 1021.7 |
| 20260505222420 | 62 | 2 | 1.7 | 2.6 | 0.00 | 0.00 | 0.00 | 36 | 1021.7 |
| 20260505221916 | 62 | 327 | 8.7 | 11.3 | 0.00 | 0.00 | 0.00 | 33 | 1021.6 |
| 20260505221414 | 62 | 333 | 11.3 | 13.0 | 0.00 | 0.00 | 0.00 | 33 | 1021.7 |
| 20260505220910 | 62 | 341 | 6.1 | 8.7 | 0.00 | 0.00 | 0.00 | 32 | 1021.9 |
| 20260505220407 | 63 | 347 | 11.3 | 13.0 | 0.00 | 0.00 | 0.00 | 33 | 1021.6 |
| 20260505215905 | 64 | 6 | 3.5 | 6.1 | 0.00 | 0.00 | 0.00 | 34 | 1021.5 |
| 20260505215403 | 64 | 46 | 7.8 | 9.6 | 0.00 | 0.00 | 0.00 | 35 | 1021.6 |
| 20260505214901 | 63 | 352 | 13.0 | 14.8 | 0.00 | 0.00 | 0.00 | 34 | 1021.7 |
| 20260505214358 | 64 | 338 | 15.6 | 18.2 | 0.00 | 0.00 | 0.00 | 32 | 1021.6 |
| 20260505213855 | 64 | 344 | 13.9 | 17.4 | 0.00 | 0.00 | 0.00 | 33 | 1021.7 |
| 20260505213353 | 63 | 346 | 9.6 | 12.2 | 0.00 | 0.00 | 0.00 | 31 | 1021.7 |
| 20260505212849 | 64 | 344 | 8.7 | 12.2 | 0.00 | 0.00 | 0.00 | 32 | 1021.9 |
| 20260505212346 | 64 | 316 | 7.8 | 8.7 | 0.00 | 0.00 | 0.00 | 33 | 1021.6 |
| 20260505211842 | 63 | 347 | 4.3 | 6.1 | 0.00 | 0.00 | 0.00 | 34 | 1021.7 |
| 20260505211340 | 63 | 352 | 9.6 | 13.0 | 0.00 | 0.00 | 0.00 | 31 | 1021.6 |
| 20260505210836 | 64 | 339 | 5.2 | 7.8 | 0.00 | 0.00 | 0.00 | 33 | 1021.8 |
| 20260505210333 | 64 | 339 | 7.8 | 9.6 | 0.00 | 0.00 | 0.00 | 32 | 1021.9 |
| 20260505205830 | 64 | 353 | 4.3 | 7.0 | 0.00 | 0.00 | 0.00 | 32 | 1021.8 |
| 20260505205328 | 65 | 340 | 10.4 | 12.2 | 0.00 | 0.00 | 0.00 | 31 | 1021.9 |
| 20260505204825 | 64 | 102 | 2.6 | 4.3 | 0.00 | 0.00 | 0.00 | 35 | 1021.9 |
| 20260505204323 | 62 | 323 | 6.1 | 7.8 | 0.00 | 0.00 | 0.00 | 33 | 1021.9 |
| 20260505203820 | 62 | 350 | 7.0 | 11.3 | 0.00 | 0.00 | 0.00 | 35 | 1021.9 |
| 20260505203316 | 62 | 320 | 4.3 | 7.0 | 0.00 | 0.00 | 0.00 | 32 | 1022.1 |
| 20260505202812 | 63 | 6 | 7.8 | 8.7 | 0.00 | 0.00 | 0.00 | 35 | 1021.9 |
| 20260505202309 | 62 | 335 | 6.1 | 7.0 | 0.00 | 0.00 | 0.00 | 32 | 1022.0 |
| 20260505201805 | 62 | 339 | 8.7 | 9.6 | 0.00 | 0.00 | 0.00 | 31 | 1022.1 |
| 20260505201303 | 64 | 337 | 5.2 | 7.0 | 0.00 | 0.00 | 0.00 | 33 | 1021.8 |
| 20260505200801 | 62 | 27 | 7.8 | 11.3 | 0.00 | 0.00 | 0.00 | 33 | 1022.2 |
| 20260505200258 | 63 | 346 | 7.0 | 8.7 | 0.00 | 0.00 | 0.00 | 32 | 1021.9 |
| 20260505195753 | 62 | 32 | 4.3 | 7.0 | 0.00 | 0.00 | 0.00 | 32 | 1022.1 |
| 20260505195251 | 61 | 339 | 7.8 | 8.7 | 0.00 | 0.00 | 0.00 | 33 | 1022.3 |
| 20260505194748 | 62 | 329 | 12.2 | 13.9 | 0.00 | 0.00 | 0.00 | 31 | 1021.9 |
| 20260505194244 | 62 | 341 | 7.8 | 7.8 | 0.00 | 0.00 | 0.00 | 31 | 1022.3 |
| 20260505193740 | 62 | 330 | 7.0 | 8.7 | 0.00 | 0.00 | 0.00 | 33 | 1022.1 |
| 20260505193238 | 62 | 21 | 3.5 | 6.1 | 0.00 | 0.00 | 0.00 | 32 | 1022.3 |
| 20260505192736 | 62 | 333 | 11.3 | 13.0 | 0.00 | 0.00 | 0.00 | 30 | 1022.1 |
| 20260505192233 | 61 | 335 | 8.7 | 11.3 | 0.00 | 0.00 | 0.00 | 31 | 1022.5 |
| 20260505191731 | 61 | 336 | 9.6 | 13.9 | 0.00 | 0.00 | 0.00 | 34 | 1022.3 |
| 20260505191230 | 61 | 337 | 7.0 | 8.7 | 0.00 | 0.00 | 0.00 | 31 | 1022.6 |
| 20260505190725 | 61 | 340 | 7.8 | 12.2 | 0.00 | 0.00 | 0.00 | 32 | 1022.6 |
| 20260505190225 | 62 | 332 | 9.6 | 12.2 | 0.00 | 0.00 | 0.00 | 32 | 1022.3 |
| 20260505185722 | 61 | 6 | 6.1 | 7.0 | 0.00 | 0.00 | 0.00 | 32 | 1022.5 |